sat.trackr.live / text

‹ back to catalog

STARLINK-11731 [DTC]

NORAD 64371 · 2025-127B

PAYLOAD ACTIVE UNKNOWN

§ Identity

Operator
Country
US
Launch date
2025-06-13
Launch site
AFETR
Launch vehicle
Mass (kg)
RCS (m²)

Purposes: comms

External: N2YO · Heavens-Above · Gunter

§ Orbital elements

Epoch: 2026-05-24T22:54:12.397824Z

Period
91.67 min
Inclination
42.9998°
Eccentricity
0.0001716
Mean motion
15.70900757 rev/d
Perigee alt
355.2 km
Apogee alt
357.5 km
Semi-major
6,734.5 km
B*
1.7060e-3
RAAN
345.1243°
Arg perigee
260.2183°
Mean anomaly
99.8491°
Rev number
5,549

§ Raw data

STARLINK-11731 [DTC]1 64371U 25127B   26144.95431016  .00225053  00000+0  17060-2 0  99962 64371  42.9998 345.1243 0001716 260.2183  99.8491 15.70900757 55497

JSON: /api/v1/satellites/64371 · /tle

For live sub-satellite position, see the globe view (requires WebGL).

§ Visibility from observer

Set your observer location to see the next 7 days of passes ≥ 10°. The values pass through the URL so the page stays shareable.

No JS? Fill the form by hand. The geolocation button needs JavaScript.